Regional Weather Roundup
Issued by NWS

Home | Current Version | Previous Version | Graphics & Text | Print | Product List | Glossary On
Versions: 1 2 3 4 5 6 7 8 9 10 11 12 13 14 15 16 17 18 19 20 21 22 23 24 25 26 27 28 29 30 31 32 33 34 35 36 37 38 39 40 41 42 43 44 45 46 47 48 49 50
000
ASUS45 KSLC 020310
RWRUT

UTAH REGIONAL WEATHER ROUNDUP
NATIONAL WEATHER SERVICE SALT LAKE CITY UT
900 PM MDT MON JUN 01 2015

UTZ001>011-023>025-020400-

NORTHERN UTAH

CITY           SKY/WX    TMP DP  RH WIND       PRES   REMARKS
BRIGHAM CITY   MOCLDY    71  38  30 NE9       29.89F
HILL AFB       PTCLDY    72  38  28 N12       29.88F
LOGAN          CLEAR     60  49  66 SW3       29.94F
OGDEN          MOCLDY    71  39  31 N10       29.86S
PROVO AIRPORT  PTCLDY    79  43  27 S17       29.85F
SALT LAKE CITY CLOUDY    73  47  39 NW14      29.83R
VERNAL         MOCLDY    75  32  20 W6        29.88S
WENDOVER       PTCLDY    73  43  33 NE14      29.84S
HEBER CITY     MOCLDY    75  21  13 S7G22     29.92S
WEST JORDAN    CLEAR     72  45  37 NW14      29.89R

$$

UTZ012>022-026-027-020400-

SOUTHERN/CENTRAL UTAH

CITY           SKY/WX    TMP DP  RH WIND       PRES   REMARKS
BLANDING       MOCLDY    78  15   9 W10G17    30.09R
BRYCE CANYON   CLEAR     59  23  25 SW8       30.16R
CEDAR CITY     MOCLDY    70  27  20 S9        30.00R
DELTA          PTCLDY    78  20  11 SW21G26   29.89S
HANKSVILLE     CLEAR     86  19   8 SW17G23   29.88S
MILFORD        PTCLDY    75  25  15 SW16      29.95R
MOAB/CYNLANDS  CLEAR     81  16   9 SW9       29.85R
PRICE          MOCLDY    78  20  11 W13       29.95R
ST GEORGE      MOCLDY    90  27  10 S21       29.85R
KANAB          PTCLDY    77  25  14 SW9G21    30.01R

$$

REGIONAL REPORTS     COLORADO/ARIZONA

CITY           SKY/WX    TMP DP  RH WIND       PRES   REMARKS
CRAIG, CO      CLEAR     62  43  49 SW5       29.98S
GRAND JUNCTION PTCLDY    78  31  17 NW6       29.88R
RIFLE          PTCLDY    79  33  19 W16G23    29.95R
MONTROSE       PTCLDY    75  34  22 S8        30.01R
CORTEZ         CLEAR     69  22  16 S10       30.04R
PAGE, AZ       CLEAR     87  14   6 SW13G20   29.91R
GRAND CANYON   PTCLDY    68  20  16 SW13      30.15S
KINGMAN        PTCLDY    79  13   8 S9        29.94S
FLAGSTAFF      MOCLDY    66  23  19 SW13      30.21S

$$

REGIONAL REPORTS    NEVADA/IDAHO/WYOMING

CITY           SKY/WX    TMP DP  RH WIND       PRES   REMARKS
LAS VEGAS, NV  PTCLDY    91  20   7 SW12      29.77S
ELY            CLEAR     71  27  19 S14       29.97R
ELKO           CLEAR     72  26  18 NW7       29.91R
POCATELLO, ID  PTCLDY    58  54  86 NE8       29.93F
BURLEY         PTCLDY    64  47  53 NE5       29.87F
EVANSTON, WY   MOCLDY    60  40  47 N12       30.06R
ROCK SPRINGS   MOCLDY    64  33  31 E3        30.00F
KEMMERER       MOCLDY    54  37  54 NW21      30.09R

$$



USA.gov is the U.S. government's official web portal to all federal, state and local government web resources and services.